Rapid City, SD

9:44 PM MDT on April 24, 2017 (GMT -0600)
Rapid City Regional

Weather History for KRAP - January, 2014

Change the Weather History Date:

Tuesday, January 28, 2014

  Actual Average Record
Temperature  
Mean Temperature 9 °F 25 °F  
Max Temperature 22 °F 37 °F 66 °F (1988)
Min Temperature -5 °F 13 °F -23 °F (1951)
Degree Days  
Heating Degree Days 56 40  
Month to date heating degree days 1082 1122  
Since 1 July heating degree days 4225 4038  
Cooling Degree Days 0 0  
Month to date cooling degree days 0 0  
Year to date cooling degree days 0 0  
Moisture  
Dew Point -2 °F    
Average Humidity 61    
Maximum Humidity 82    
Minimum Humidity 39    
Precipitation  
Precipitation 0.00 in 0.01 in 0.34 in (1947)
Month to date precipitation 0.20 0.27  
Year to date precipitation 0.20 0.27  
Snow  
Snow 0.00 in 0.20 in 4.10 in (1947)
Month to date snowfall 3.2 4.0  
Since 1 July snowfall 36.6 17.2  
Snow Depth T in    
Sea Level Pressure  
Sea Level Pressure 30.32 in    
Wind  
Wind Speed 3 mph (SSW)    
Max Wind Speed 8 mph    
Max Gust Speed 12 mph    
Visibility 10 miles    
Events      
T = Trace of Precipitation, MM = Missing Value Source: NWS Daily Summary

Daily Weather History Graph

Daily Weather History Graph

Search for Another Location

Airport or City:

Trip Planner

Search our weather history database for the weather conditions in past years. The results will help you decide how hot, cold, wet, or windy it might be!

Date:

Astronomy

Jan. 28, 2014 Rise Set
Actual Time 7:13 AM MST 4:57 PM MST
Civil Twilight 6:42 AM MST 5:28 PM MST
Nautical Twilight 6:08 AM MST 6:02 PM MST
Astronomical Twilight 5:34 AM MST 6:37 PM MST
Moon 4:59 AM MST (1/28) 2:48 PM MST (1/28)
Length of Visible Light 10h 45m
Length of Day
9h 43m
Waning Crescent, 7% of the Moon is Illuminated
Jan 28
Waning Crescent
Jan 30
New
Feb 6
First Quarter
Feb 14
Full
Feb 22
Last Quarter

Hourly Weather History & Observations

Time (MST) Temp. Windchill Dew Point Humidity Pressure Visibility Wind Dir Wind Speed Gust Speed Precip Events Conditions
12:52 AM -0.9 °F -11.0 °F -7.1 °F 75% 30.48 in 10.0 mi NW 4.6 mph - N/A   Clear
1:52 AM -2.0 °F -10.1 °F -7.1 °F 79% 30.48 in 10.0 mi WNW 3.5 mph - N/A   Clear
2:52 AM -2.9 °F - -8.0 °F 79% 30.48 in 10.0 mi Calm Calm - N/A   Clear
3:52 AM -0.0 °F - -6.0 °F 76% 30.46 in 10.0 mi Calm Calm - N/A   Clear
4:52 AM -0.0 °F - -5.1 °F 79% 30.46 in 10.0 mi Calm Calm - N/A   Clear
5:52 AM -5.1 °F - -9.9 °F 80% 30.46 in 10.0 mi Calm Calm - N/A   Clear
6:52 AM -0.9 °F -12.7 °F -8.0 °F 72% 30.45 in 10.0 mi SW 5.8 mph - N/A   Clear
7:52 AM 1.0 °F - -5.1 °F 75% 30.45 in 10.0 mi Calm Calm - N/A   Clear
8:52 AM 6.1 °F -2.8 °F -0.9 °F 73% 30.42 in 10.0 mi SSE 4.6 mph - N/A   Clear
9:52 AM 10.9 °F 2.9 °F 1.0 °F 64% 30.41 in 10.0 mi SSE 4.6 mph - N/A   Clear
10:52 AM 15.1 °F 9.4 °F -0.0 °F 51% 30.40 in 10.0 mi Variable 3.5 mph - N/A   Clear
11:52 AM 18.0 °F - -0.0 °F 45% 30.35 in 10.0 mi Calm Calm - N/A   Clear
12:52 PM 19.0 °F - -0.0 °F 43% 30.31 in 10.0 mi Calm Calm - N/A   Clear
1:52 PM 21.9 °F 17.2 °F -0.0 °F 38% 30.27 in 10.0 mi Variable 3.5 mph - N/A   Clear
2:52 PM 21.9 °F 15.7 °F -0.9 °F 37% 30.25 in 10.0 mi SW 4.6 mph - N/A   Clear
3:52 PM 21.9 °F 13.4 °F -0.9 °F 37% 30.24 in 10.0 mi SW 6.9 mph - N/A   Clear
4:52 PM 18.0 °F 9.8 °F 1.0 °F 48% 30.24 in 10.0 mi South 5.8 mph - N/A   Clear
5:52 PM 14.0 °F 5.1 °F 1.0 °F 56% 30.25 in 10.0 mi SSW 5.8 mph - N/A   Clear
6:52 PM 12.9 °F 3.8 °F -0.0 °F 56% 30.22 in 10.0 mi SW 5.8 mph - N/A   Clear
7:52 PM 14.0 °F 6.5 °F -0.0 °F 54% 30.18 in 10.0 mi SW 4.6 mph - N/A   Clear
8:52 PM 12.0 °F 4.1 °F -0.0 °F 59% 30.15 in 10.0 mi SSE 4.6 mph - N/A   Clear
9:52 PM 12.0 °F - -0.9 °F 56% 30.13 in 10.0 mi Calm Calm - N/A   Clear
10:52 PM 10.0 °F - -2.0 °F 58% 30.10 in 10.0 mi Calm Calm - N/A   Clear
11:52 PM 10.0 °F - -2.0 °F 58% 30.07 in 10.0 mi Calm Calm - N/A   Clear